Location: Canazei
(46.4667°N, 11.7667°E)
Time: 04:58:50
(UTC+00:00)

SL-24 R/B - RUBIN 2 - Pass Details

Date: 21 April 2021
Orbit: 580 x 1015 km, 64.6° (Epoch: 10 May)

Event Time Altitude Azimuth Distance (km) Brightness Sun altitude
Rises 02:57:06 0° 322° (NW) 3,460 7.3 -12.9°
Reaches altitude 10° 02:59:44 10° 323° (NW) 2,449 6.6 -12.6°
Maximum altitude 03:05:22 88° 52° (NE) 763 4.0 -11.7°
Drops below altitude 10° 03:10:16 10° 144° (SE) 2,144 6.4 -11.0°
Sets 03:12:27 0° 144° (SE) 2,998 7.2 -10.7°
